Tracking 27420 objects as of 28-May-2023
HD Live streaming from Space Station
objects crossing your sky now

CZ-4 DEB

Track CZ-4 DEB now!
10-day predictions


NORAD ID: 37613
Int'l Code: 1990-081CZ
Perigee: 783.3 km
Apogee: 1,041.8 km
Inclination: 98.9 °
Period: 103.1 minutes
Semi major axis: 7283 km
RCS: 0.0075 m2 (small)
Launch date: September 3, 1990
Source: People's Republic of China (PRC)
Launch site: Taiyaun Space Center, China (TSC)

Note: This is SATELLITE DEBRIS
Your satellite tracking list
Your tracking list is empty




NASA's NSSDC Master Catalog

Two Line Element Set (TLE):
1 37613U 90081CZ  23143.81693512  .00002221  00000-0  14309-2 0  9992
2 37613  98.8581 342.9656 0177432 300.5255  57.8497 13.96651367976380
Source of the keplerian elements: AFSPC